Weather in Filippsola

Russia / Mari El Republic     56°17′02″N   48°30′22″E
temp.,
°C
wind,
m/s
gust,
m/s
humid.,
%
clouds,
%
prec.,
mm/h
press.,
hPa
HPBL,
m
27 july, tue
tue2700:00+13wsw377197 0.0 1018131
03:00+15wsw3106415 0.0 1017293
06:00+16wnw3107236 0.0 1017322
09:00+21nw46544 0.0 10171104
12:00+23nw574565 0.0 10162106
15:00+24nw58365 0.0 10152461
18:00+21nnw48480 0.0 10151044
21:00+13n22715 0.0 101625
28 july, wed
wed2800:00+11n11720 0.0 101711
03:00+9n11781 0.0 101711
06:00+13nw126821 0.0 1018117
09:00+20nw12445 0.0 10171230
12:00+22wnw24345 0.0 10161965
15:00+23wnw35305 0.0 10152150
18:00+21nnw11500 0.0 101416
21:00+15se22570 0.0 101314
29 july, thu
thu2900:00+14s2467100 0.0 101265
03:00+14s2870100 0.0 1011153
06:00+17ssw1169100 0.0 100970
09:00+16sw41187100 0.2 1009421
12:00+16sse3998100 2.1 1007575
15:00+16s3898100 10.0 1005485
18:00+16se149990 2.1 1004269
21:00+15nnw1299100 2.1 100460
30 july, fri
fri3000:00+15nw1297100 0.1 100563
03:00+15wsw249936 0.1 1005120
06:00+16wsw369742 0.0 1006214
09:00+22wsw47727 0.0 1006698
12:00+26w584713 0.1 10052026
15:00+28w583925 0.1 10052763
18:00+25wsw4105736 0.0 1006537
21:00+19wsw248022 0.0 100774
31 july, sat
sat3100:00+17wsw22870 0.0 100734
03:00+16ssw228997 0.0 100835
06:00+20ssw24796 0.0 1008131
09:00+25ssw465780 0.0 1007628
12:00+20ssw228668 0.6 100721
15:00+25wsw587181 2.8 1006987
18:00+20ssw5109018 1.4 1006353
21:00+18ssw24940 1.4 100672